BEIDOU-3 M13 (C32)

Last updated on Sun Oct 12 2025 00:03:24 GMT+0000 (Coordinated Universal Time)

1 43622U 18072A 25281.70343855 -.00000001 00000+0 00000+0 0 9998 2 43622 56.6124 70.9597 0015990 272.2089 87.6036 1.86276138 47973
UTC large
Height (km)
Speed (km/s)
/
Latitude / Longitude
Inclination (degrees)
Orbital Period (minutes)
Azimuth
Elevation
Range (km)
Doppler Factor

Next 0 passes for location: London (51.5072 / 0.1276)

Sorry there are no passes over London.